Change the Weather History Date:

Thursday, January 2, 2014

  Actual Average (KNYC) Record (KNYC)
Temperature  
Mean Temperature 27 °F 33 °F  
Max Temperature 33 °F 39 °F 68 °F (1876)
Min Temperature 21 °F 28 °F 2 °F (1918)
Degree Days  
Heating Degree Days 38 32  
Month to date heating degree days 64  
Since 1 July heating degree days 1749  
Cooling Degree Days 0 0  
Month to date cooling degree days 0  
Year to date cooling degree days 0  
Moisture  
Dew Point 26 °F    
Average Humidity 88    
Maximum Humidity 100    
Minimum Humidity 65    
Precipitation  
Precipitation 0.01 in 0.12 in 1.92 in (1925)
Month to date precipitation 0.24  
Year to date precipitation 0.24  
Snow  
Snow 0.00 in 0.20 in 11.50 in (1925)
Month to date snowfall 0.4  
Since 1 July snowfall 5.5  
Snow Depth -    
Sea Level Pressure  
Sea Level Pressure 29.96 in    
Wind  
Wind Speed 17 mph (NE)    
Max Wind Speed 25 mph    
Max Gust Speed 34 mph    
Visibility 8 miles    
Events      
T = Trace of Precipitation, MM = Missing Value Source: NWS Daily Summary

Daily Weather History Graph

Daily Weather History Graph

Search for Another Location

Airport or City:

Trip Planner

Search our weather history database for the weather conditions in past years. The results will help you decide how hot, cold, wet, or windy it might be!

Date:

Astronomy

Jan. 02, 2014 Rise Set
Actual Time 7:20 AM EST 4:40 PM EST
Civil Twilight 6:49 AM EST 5:11 PM EST
Nautical Twilight 6:15 AM EST 5:45 PM EST
Astronomical Twilight 5:41 AM EST 6:18 PM EST
Moon 7:58 AM EST (1/2) 6:34 PM EST (1/2)
Length of Visible Light 10h 21m
Length of Day
9h 20m
New Moon, 2% of the Moon is Illuminated
Jan 2
New Moon
Jan 7
First Quarter
Jan 15
Full
Jan 24
Last Quarter
Jan 30
New

Hourly Weather History & Observations

Time (EST) Temp. Windchill Dew Point Humidity Pressure Visibility Wind Dir Wind Speed Gust Speed Precip Events Conditions
12:15 AM 33.8 °F 24.3 °F 24.8 °F 70% 30.25 in 10.0 mi NE 13.8 mph - N/A   Overcast
12:35 AM 33.8 °F 24.3 °F 23.0 °F 65% 30.23 in 10.0 mi NE 13.8 mph 19.6 mph N/A   Overcast
12:55 AM 33.8 °F 23.2 °F 24.8 °F 70% 30.23 in 10.0 mi NE 17.3 mph - N/A   Overcast
1:15 AM 33.8 °F 23.5 °F 24.8 °F 70% 30.22 in 10.0 mi NE 16.1 mph 21.9 mph N/A   Overcast
1:35 AM 33.8 °F 24.3 °F 24.8 °F 70% 30.21 in 10.0 mi NE 13.8 mph - N/A   Overcast
1:55 AM 33.8 °F 24.8 °F 24.8 °F 70% 30.21 in 10.0 mi NE 12.7 mph - N/A   Overcast
2:15 AM 33.8 °F 23.9 °F 24.8 °F 70% 30.20 in 10.0 mi NE 15.0 mph 19.6 mph N/A   Overcast
2:35 AM 33.8 °F 24.8 °F 24.8 °F 70% 30.19 in 10.0 mi NE 12.7 mph 20.7 mph N/A   Overcast
2:55 AM 33.8 °F 24.3 °F 24.8 °F 70% 30.18 in 10.0 mi NNE 13.8 mph 21.9 mph N/A   Overcast
3:15 AM 33.8 °F 23.5 °F 24.8 °F 70% 30.17 in 10.0 mi NNE 16.1 mph 23.0 mph N/A   Overcast
3:35 AM 33.8 °F 23.2 °F 26.6 °F 75% 30.16 in 10.0 mi NNE 17.3 mph 24.2 mph N/A   Overcast
3:55 AM 33.8 °F 22.5 °F 26.6 °F 75% 30.16 in 10.0 mi NE 19.6 mph 25.3 mph N/A   Overcast
4:15 AM 32.0 °F 18.9 °F 28.4 °F 87% 30.15 in 10.0 mi NE 24.2 mph 28.8 mph N/A   Overcast
4:35 AM 32.0 °F 19.2 °F 28.4 °F 87% 30.13 in 10.0 mi NNE 23.0 mph 28.8 mph N/A   Overcast
4:55 AM 32.0 °F 20.1 °F 28.4 °F 87% 30.13 in 10.0 mi NE 19.6 mph 31.1 mph N/A   Overcast
5:15 AM 30.2 °F 17.8 °F 28.4 °F 93% 30.12 in 5.0 mi NE 19.6 mph 32.2 mph N/A   Overcast
5:35 AM 30.2 °F 18.1 °F 28.4 °F 93% 30.13 in 10.0 mi NE 18.4 mph 25.3 mph N/A   Overcast
5:55 AM 30.2 °F 17.1 °F 28.4 °F 93% 30.12 in 10.0 mi NE 21.9 mph 28.8 mph N/A   Overcast
6:15 AM 30.2 °F 17.1 °F 26.6 °F 86% 30.11 in 10.0 mi NE 21.9 mph 28.8 mph N/A   Overcast
6:35 AM 30.2 °F 18.1 °F 28.4 °F 93% 30.12 in 10.0 mi NNE 18.4 mph 26.5 mph N/A   Overcast
6:55 AM 30.2 °F 18.5 °F 26.6 °F 86% 30.11 in 10.0 mi NE 17.3 mph 27.6 mph N/A   Overcast
7:15 AM 28.4 °F 15.1 °F 26.6 °F 93% 30.10 in 10.0 mi NE 20.7 mph 27.6 mph N/A   Overcast
7:35 AM 28.4 °F 14.7 °F 26.6 °F 93% 30.09 in 10.0 mi NNE 21.9 mph 33.4 mph N/A   Overcast
7:55 AM 30.2 °F 17.8 °F 26.6 °F 86% 30.09 in 10.0 mi NNE 19.6 mph 28.8 mph N/A   Overcast
8:15 AM 30.2 °F 18.1 °F 26.6 °F 86% 30.10 in 10.0 mi NE 18.4 mph 26.5 mph N/A   Overcast
8:35 AM 30.2 °F 18.5 °F 26.6 °F 86% 30.09 in 10.0 mi NE 17.3 mph 26.5 mph N/A   Overcast
8:55 AM 30.2 °F 17.1 °F 26.6 °F 86% 30.09 in 10.0 mi NNE 21.9 mph 31.1 mph N/A   Overcast
9:15 AM 28.4 °F 14.7 °F 26.6 °F 93% 30.09 in 10.0 mi NE 21.9 mph 28.8 mph N/A   Overcast
9:35 AM 30.2 °F 17.4 °F 26.6 °F 86% 30.07 in 10.0 mi NE 20.7 mph 28.8 mph N/A   Overcast
9:55 AM 28.4 °F 15.8 °F 26.6 °F 93% 30.07 in 10.0 mi NNE 18.4 mph 32.2 mph N/A   Overcast
10:15 AM 28.4 °F 15.4 °F 26.6 °F 93% 30.05 in 10.0 mi NE 19.6 mph 26.5 mph N/A   Overcast
10:35 AM 28.4 °F 15.8 °F 26.6 °F 93% 30.04 in 10.0 mi NNE 18.4 mph 26.5 mph N/A   Overcast
10:55 AM 28.4 °F 16.2 °F 26.6 °F 93% 30.03 in 10.0 mi NNE 17.3 mph 24.2 mph N/A   Overcast
11:15 AM 28.4 °F 15.1 °F 26.6 °F 93% 30.00 in 10.0 mi NNE 20.7 mph 29.9 mph N/A   Overcast
11:35 AM 30.2 °F 16.8 °F 28.4 °F 93% 29.99 in 10.0 mi NNE 23.0 mph 34.5 mph 0.01 in   Overcast
11:55 AM 30.2 °F 16.2 °F 26.6 °F 86% 29.96 in 10.0 mi NNE 25.3 mph 29.9 mph 0.01 in   Overcast
12:15 PM 30.2 °F 18.1 °F 28.4 °F 93% 29.95 in 10.0 mi NE 18.4 mph 28.8 mph N/A   Overcast
12:35 PM 30.2 °F 18.5 °F 26.6 °F 86% 29.95 in 10.0 mi NNE 17.3 mph 29.9 mph N/A   Overcast
12:55 PM 28.4 °F 15.8 °F 26.6 °F 93% 29.93 in 10.0 mi NNE 18.4 mph 27.6 mph N/A   Overcast
1:15 PM 28.4 °F 16.6 °F 26.6 °F 93% 29.92 in 10.0 mi NE 16.1 mph 23.0 mph N/A   Overcast
1:35 PM 28.4 °F 15.8 °F 26.6 °F 93% 29.91 in 10.0 mi NNE 18.4 mph 25.3 mph N/A   Overcast
1:55 PM 28.4 °F 15.1 °F 24.8 °F 86% 29.89 in 10.0 mi NNE 20.7 mph 27.6 mph N/A   Overcast
2:15 PM 28.4 °F 16.6 °F 24.8 °F 86% 29.87 in 10.0 mi NNE 16.1 mph 24.2 mph N/A   Overcast
2:35 PM 28.4 °F 14.7 °F 24.8 °F 86% 29.87 in 10.0 mi NNE 21.9 mph 29.9 mph N/A   Overcast
2:55 PM 28.4 °F 17.0 °F 24.8 °F 86% 29.87 in 10.0 mi NE 15.0 mph 21.9 mph N/A   Overcast
3:15 PM 28.4 °F 15.4 °F 24.8 °F 86% 29.85 in 10.0 mi NNE 19.6 mph 25.3 mph N/A   Overcast
3:35 PM 28.4 °F 15.4 °F 26.6 °F 93% 29.84 in 10.0 mi NNE 19.6 mph 25.3 mph N/A   Overcast
3:55 PM 28.4 °F 16.2 °F 26.6 °F 93% 29.85 in 10.0 mi NNE 17.3 mph 25.3 mph N/A   Overcast
4:15 PM 28.4 °F 15.8 °F 26.6 °F 93% 29.83 in 10.0 mi NE 18.4 mph 27.6 mph N/A   Overcast
4:35 PM 28.4 °F 16.2 °F 26.6 °F 93% 29.82 in 10.0 mi NE 17.3 mph 24.2 mph N/A   Overcast
4:55 PM 28.4 °F 16.2 °F 26.6 °F 93% 29.82 in 10.0 mi NE 17.3 mph 24.2 mph N/A   Overcast
5:15 PM 28.4 °F 16.6 °F 26.6 °F 93% 29.83 in 10.0 mi NNE 16.1 mph 21.9 mph N/A   Overcast
5:35 PM 28.4 °F 16.6 °F 26.6 °F 93% 29.81 in 10.0 mi NNE 16.1 mph 25.3 mph N/A   Overcast
5:55 PM 28.4 °F 17.5 °F 26.6 °F 93% 29.80 in 10.0 mi NE 13.8 mph 23.0 mph N/A   Overcast
6:15 PM 28.4 °F 15.1 °F 26.6 °F 93% 29.80 in 10.0 mi NE 20.7 mph 27.6 mph N/A   Overcast
6:35 PM 28.4 °F 14.7 °F 26.6 °F 93% 29.78 in 10.0 mi NE 21.9 mph 26.5 mph N/A   Overcast
6:55 PM 28.4 °F 15.4 °F 26.6 °F 93% 29.77 in 2.5 mi NNE 19.6 mph 27.6 mph N/A   Overcast
7:15 PM 26.6 °F 12.7 °F 26.6 °F 100% 29.77 in 2.5 mi NNE 20.7 mph 25.3 mph N/A   Overcast
7:35 PM 26.6 °F 12.4 °F 24.8 °F 93% 29.75 in 2.5 mi NNE 21.9 mph 28.8 mph N/A   Overcast
7:55 PM 26.6 °F 11.7 °F 24.8 °F 93% 29.74 in 1.5 mi NNE 24.2 mph 29.9 mph N/A   Overcast
8:15 PM 26.6 °F 13.1 °F 24.8 °F 93% 29.73 in 1.2 mi NE 19.6 mph 26.5 mph N/A   Overcast
8:35 PM 26.6 °F 13.8 °F 24.8 °F 93% 29.73 in 1.5 mi NNE 17.3 mph 24.2 mph N/A   Overcast
8:55 PM 26.6 °F 13.4 °F 24.8 °F 93% 29.71 in 1.5 mi NNE 18.4 mph 25.3 mph N/A   Overcast
9:15 PM 24.8 °F 11.9 °F 23.0 °F 93% 29.71 in 1.0 mi NE 16.1 mph 26.5 mph N/A   Overcast
9:35 PM 24.8 °F 11.1 °F 24.8 °F 100% 29.71 in 1.5 mi NE 18.4 mph 29.9 mph N/A   Overcast
9:55 PM 24.8 °F 11.9 °F 23.0 °F 93% 29.71 in 1.2 mi NE 16.1 mph 27.6 mph N/A   Overcast
10:15 PM 24.8 °F 10.3 °F 21.2 °F 86% 29.70 in 1.5 mi NE 20.7 mph 31.1 mph N/A   Overcast
10:35 PM 23.0 °F 10.1 °F 21.2 °F 93% 29.68 in 1.2 mi NE 15.0 mph 26.5 mph N/A   Overcast
10:55 PM 23.0 °F 9.2 °F 21.2 °F 93% 29.69 in 1.5 mi NNE 17.3 mph 28.8 mph N/A   Overcast
11:15 PM 21.2 °F 6.0 °F 21.2 °F 100% 29.68 in 1.5 mi NE 19.6 mph 27.6 mph N/A   Overcast
11:35 PM 21.2 °F 7.8 °F 19.4 °F 93% 29.68 in 1.2 mi NNE 15.0 mph 23.0 mph N/A   Overcast
11:55 PM 23.0 °F 11.1 °F 21.2 °F 93% 29.67 in 1.2 mi NE 12.7 mph 28.8 mph N/A   Overcast